Wetbulb
53.41 53.48 53.27 53.21 53.39 53.73 53.08 51.94 51.69 51.73 51.81 51.52 51.39 51.06 50.69 50.33 50.06 49.49 49.21 48.84 48.64 47.51 46.47 47.20 44.72 44.08 42.94 42.71 42.34 41.69 40.56 40.72 39.42 38.25 37.77 35.81 36.02 36.96 37.78 37.58 39.15 38.18 38.53
52.37 52.48 52.28 52.34 52.17 51.64 51.32 51.66 51.75 50.96 51.23 51.15 50.99 50.59 50.15 49.93 49.73 49.23 48.32 47.68 47.09 44.77 44.98 44.36 43.06 44.00 41.41 41.18 40.57 39.23 38.57 37.71 37.11 33.08 33.17 34.46 34.91 35.44 35.83 36.35 38.57 40.54 38.67
49.06 49.83 50.26 50.41 50.18 50.04 49.97 50.17 50.24 49.89 49.52 49.28 48.75 46.80 45.54 45.91 45.55 45.37 45.09 44.27 43.20 42.34 42.06 42.26 41.32 40.38 38.90 38.81 38.21 37.76 35.95 36.78 34.11 33.51 33.10 34.07 34.81 35.35 35.99 36.45 36.94 36.75 39.49
45.05 44.42 43.78 45.33 46.35 46.34 45.55 45.09 45.15 45.01 44.19 43.09 42.63 42.14 41.69 41.12 40.94 40.93 40.77 40.25 39.88 39.78 39.96 39.83 39.35 38.99 37.80 36.23 36.18 35.48 36.06 35.15 34.25 33.83 33.34 33.52 34.11 35.23 34.65 34.19 33.21 34.81 35.13
39.82 39.59 37.89 39.03 41.29 42.14 42.25 42.07 42.18 42.06 41.75 41.82 41.42 41.16 41.26 41.18 39.98 38.39 37.98 37.70 36.93 36.28 37.34 38.75 37.54 40.16 43.33 40.89 37.98 36.16 34.98 33.70 33.14 32.61 32.27 32.52 32.69 32.78 32.23 32.74 32.48 32.84 33.39
36.80 35.93 36.37 36.21 36.17 36.72 37.80 37.69 38.29 38.35 38.65 39.41 38.98 39.64 40.03 42.06 45.22 43.55 37.39 34.61 35.09 34.92 35.06 36.07 36.95 39.32 43.20 45.63 45.55 43.49 38.62 34.13 32.68 32.60 32.23 31.52 30.70 30.80 31.33 31.32 31.29 31.07 34.40
35.71 35.29 35.36 35.30 35.10 35.11 35.96 36.43 35.79 35.51 36.11 36.11 36.60 37.33 38.23 39.71 44.55 43.30 40.49 32.56 32.10 31.99 32.33 33.02 34.58 37.68 37.45 35.66 42.18 42.78 40.51 41.58 40.11 33.70 31.39 30.32 30.66 32.39 32.63 32.97 36.43 37.48 36.86
34.64 34.57 34.60 34.46 34.00 34.01 34.04 33.48 33.28 33.80 34.06 34.12 34.40 35.12 36.88 39.84 43.48 42.50 40.09 31.16 30.58 30.89 31.61 31.45 31.39 31.56 32.97 35.62 34.17 33.63 33.55 33.68 35.79 37.14 34.14 34.82 34.81 38.61 37.98 38.54 38.31 37.02 36.50
34.17 34.02 34.24 34.20 33.44 33.28 32.49 31.83 31.56 32.53 32.87 33.03 33.19 33.31 34.31 36.23 42.08 40.64 34.69 30.57 30.41 30.53 31.94 32.24 32.60 31.78 38.29 42.06 34.74 33.56 33.86 35.74 40.13 41.73 40.78 40.91 40.99 40.32 39.29 34.08 30.93 31.69 31.33
34.30 34.49 34.38 34.26 33.78 33.09 32.22 31.62 30.59 30.54 31.94 33.42 31.76 31.77 38.77 33.61 41.62 40.04 34.66 31.61 30.21 31.21 31.36 32.52 38.76 37.31 41.83 43.00 40.21 38.57 35.24 34.21 34.85 34.21 31.85 32.58 33.99 33.78 38.05 32.48 30.94 29.45 29.30
35.19 34.85 34.53 34.17 33.90 33.08 31.55 30.50 29.59 29.40 30.03 28.50 28.83 29.11 30.15 32.67 33.64 40.80 40.03 32.64 32.36 31.88 31.71 31.93 33.18 40.76 41.65 41.52 40.61 37.26 37.47 35.31 34.01 29.99 29.72 29.75 30.08 30.54 30.87 31.19 31.10 30.76 30.95
34.94 34.83 34.10 33.31 35.33 33.51 30.88 28.98 28.73 28.08 27.39 27.02 27.42 27.68 28.77 29.69 38.08 39.44 40.15 39.73 39.26 34.93 33.22 33.76 35.08 40.15 40.32 40.20 38.39 39.28 39.16 35.38 30.50 29.96 32.23 32.41 32.48 32.52 32.11 31.08 30.75 31.26 31.45
34.27 33.78 33.34 33.26 32.69 30.94 29.45 27.96 27.59 27.48 27.52 27.09 28.07 27.86 28.58 29.70 30.41 39.99 39.79 40.03 40.44 36.23 36.53 37.94 38.86 38.81 38.04 35.76 38.17 37.57 36.81 31.12 33.44 32.47 32.07 32.47 33.16 33.98 32.95 30.99 31.44 31.31 30.77
34.05 33.01 32.68 32.17 30.80 29.29 29.64 29.01 28.16 27.69 26.94 28.29 28.50 28.06 27.65 28.85 29.18 29.87 31.95 32.63 38.50 36.40 37.15 35.12 36.03 36.78 36.50 35.01 33.42 35.38 35.63 34.89 35.01 34.27 33.59 34.51 34.97 34.59 34.08 32.67 30.45 32.40 31.89
34.27 33.44 32.85 32.81 31.54 28.17 28.62 28.74 29.02 27.95 29.73 28.40 28.23 28.91 27.99 27.59 29.34 33.86 35.30 35.85 36.77 36.87 35.91 33.17 31.45 30.44 31.81 32.76 33.85 34.49 35.21 35.79 35.69 35.92 35.80 35.61 35.63 35.79 35.22 35.87 33.83 33.45 31.71
34.15 33.39 33.04 32.49 29.52 28.34 27.81 28.18 36.25 35.12 37.80 37.59 36.62 32.15 30.19 34.57 37.03 38.57 38.75 39.42 37.66 37.35 34.74 31.30 30.42 30.69 31.21 31.98 32.31 32.81 34.08 34.72 35.01 35.70 35.90 35.73 35.22 34.85 33.80 35.21 35.40 33.73 31.89
36.29 34.47 34.33 32.80 30.20 28.04 27.53 28.28 28.43 33.63 38.71 38.26 38.26 37.63 36.61 36.23 37.69 37.20 37.80 38.13 36.87 35.92 31.43 30.67 30.73 31.80 32.20 32.74 32.66 33.28 33.29 34.40 35.10 34.76 34.33 34.04 34.58 34.36 33.88 33.07 32.99 33.66 32.14
37.08 38.86 34.54 31.57 30.95 28.86 28.28 28.28 28.97 30.69 30.37 30.69 37.54 36.93 37.82 37.18 36.54 36.58 36.79 36.61 31.94 32.72 31.61 31.60 31.94 32.72 33.00 33.11 33.89 34.14 33.76 33.77 33.53 32.00 33.61 33.67 33.72 33.75 32.85 32.00 32.39 32.72 32.83
36.20 36.40 34.00 31.66 30.83 30.71 28.68 28.35 29.89 30.57 30.67 29.97 30.76 35.81 36.33 37.65 36.44 35.90 36.92 32.00 31.23 31.07 31.95 32.28 33.34 34.01 34.71 34.88 33.95 33.57 34.60 34.39 34.96 35.07 35.53 33.81 34.38 32.55 31.79 32.34 32.77 35.10 33.63
36.68 38.86 34.93 31.57 31.39 29.76 28.68 28.61 29.47 30.00 29.68 29.80 29.74 30.19 29.96 32.41 29.41 28.84 30.03 30.48 31.38 31.46 31.57 34.02 33.38 33.20 33.43 33.80 34.07 34.45 34.30 34.58 34.80 32.95 32.94 33.09 33.18 32.73 32.38 33.66 33.52 30.80 31.71
36.50 37.19 36.29 31.85 31.77 30.27 29.56 28.97 29.22 29.66 29.23 28.87 29.20 30.81 34.36 29.10 28.54 28.25 27.79 28.11 30.93 31.29 31.25 32.26 32.44 32.72 32.77 32.69 32.59 32.29 31.95 32.09 32.57 32.66 32.57 32.85 33.08 32.71 34.30 34.48 32.04 32.10 32.87
36.52 36.20 33.79 32.28 31.82 30.36 30.18 29.76 29.58 29.46 28.90 28.51 28.13 29.88 35.94 30.39 28.45 27.81 27.87 27.78 30.41 32.50 33.71 33.45 33.31 33.58 32.85 32.55 32.25 32.04 31.71 31.79 32.24 32.52 32.65 32.75 33.15 33.95 34.13 33.14 32.89 33.07 32.83
36.38 35.11 32.93 32.39 32.17 33.08 31.43 29.78 29.50 29.86 29.54 29.05 28.74 28.84 30.04 29.13 28.13 27.82 28.10 27.19 27.33 28.28 32.21 33.35 33.70 30.93 29.45 30.17 33.12 33.51 32.49 32.48 33.60 34.10 33.27 33.57 32.65 32.43 32.42 31.85 31.69 31.32 30.08
36.06 34.44 32.97 31.80 31.93 31.35 30.46 29.93 30.51 31.15 30.00 29.48 28.98 28.99 28.87 28.65 27.38 27.76 27.08 26.10 26.02 26.08 25.14 28.44 28.38 27.45 30.71 32.36 33.43 34.12 34.38 34.38 34.83 34.78 34.27 32.91 31.87 31.69 31.59 31.56 31.51 31.58 31.53
34.82 33.50 32.54 31.90 32.63 31.20 31.37 30.69 30.72 30.61 30.18 29.70 28.99 28.96 28.20 27.96 27.38 27.86 26.31 25.26 26.29 28.20 27.93 25.50 26.58 29.57 30.88 30.81 30.75 30.75 32.07 34.17 33.73 34.89 34.26 33.86 32.78 32.91 32.88 32.73 32.79 32.83 32.80
33.54 32.79 32.20 32.80 32.04 31.71 31.65 30.97 30.56 30.51 29.72 29.27 28.72 27.68 27.07 26.43 26.53 26.00 26.13 26.38 26.53 28.14 25.97 25.77 26.91 28.65 28.90 29.45 30.16 32.10 33.12 33.41 33.28 35.60 34.86 34.11 33.66 33.54 33.42 33.09 33.81 33.14 33.27
MSLP
1016.30 1016.19 1016.77 1017.24 1017.72 1018.32 1018.88 1019.05 1019.31 1019.77 1020.39 1020.43 1020.99 1021.66 1021.98 1022.26 1022.47 1022.52 1022.86 1023.10 1023.24 1023.55 1023.93 1023.81 1024.22 1024.46 1025.32 1025.64 1025.79 1025.93 1026.32 1026.71 1027.63 1028.34 1028.39 1028.80 1028.71 1028.54 1028.38 1028.17 1028.07 1028.11 1028.17
1017.12 1016.64 1017.15 1017.62 1017.99 1018.65 1019.09 1019.25 1020.03 1020.26 1020.66 1021.26 1021.49 1021.90 1022.27 1022.74 1022.81 1023.20 1023.61 1023.58 1023.67 1023.80 1024.09 1024.27 1024.53 1024.81 1025.56 1026.02 1026.12 1026.60 1026.80 1027.43 1027.95 1028.91 1029.14 1029.08 1028.78 1028.91 1028.77 1028.49 1028.24 1028.00 1028.20
1017.78 1017.70 1018.11 1018.84 1018.59 1018.68 1019.25 1020.07 1020.49 1020.82 1021.14 1021.72 1022.16 1022.70 1023.09 1023.19 1023.39 1023.57 1024.07 1024.07 1024.23 1024.30 1024.50 1024.56 1025.04 1025.36 1026.05 1026.56 1026.63 1027.27 1027.55 1027.91 1028.11 1028.82 1029.51 1029.41 1029.25 1029.07 1028.98 1028.64 1028.46 1028.40 1028.22
1018.15 1018.66 1019.51 1019.92 1019.59 1019.84 1020.21 1020.60 1020.92 1021.52 1022.19 1022.53 1022.70 1023.01 1023.59 1023.64 1024.08 1023.67 1024.22 1024.68 1024.79 1024.81 1025.23 1025.63 1025.65 1025.66 1026.21 1027.07 1027.27 1027.51 1027.99 1028.30 1028.50 1028.76 1029.01 1029.59 1029.88 1029.28 1029.28 1028.96 1028.69 1028.60 1028.52
1019.53 1019.91 1020.57 1020.43 1020.30 1020.99 1021.25 1021.15 1021.78 1021.97 1022.99 1023.15 1023.55 1023.99 1024.30 1024.30 1024.52 1024.79 1024.96 1025.15 1025.85 1026.13 1025.89 1026.53 1026.14 1026.04 1026.30 1026.70 1027.12 1027.91 1028.14 1028.63 1029.04 1028.93 1029.26 1029.54 1029.54 1029.53 1029.14 1028.74 1028.66 1028.36 1028.39
1020.06 1020.49 1020.68 1020.91 1021.37 1022.11 1022.53 1022.30 1022.34 1022.99 1023.75 1024.28 1024.70 1024.94 1025.14 1024.64 1024.89 1025.33 1025.71 1025.63 1026.17 1027.15 1026.83 1027.14 1027.05 1026.75 1026.54 1026.29 1026.70 1027.49 1028.06 1028.47 1028.68 1028.88 1029.46 1029.40 1029.06 1029.18 1028.84 1028.70 1028.89 1028.17 1028.19
1020.96 1021.41 1021.79 1022.25 1022.72 1023.02 1023.07 1023.19 1023.78 1024.17 1024.61 1025.14 1025.39 1025.77 1026.13 1025.35 1025.15 1025.55 1026.29 1026.79 1026.66 1027.16 1027.60 1027.75 1027.74 1027.36 1027.66 1027.70 1027.20 1027.29 1027.81 1028.04 1028.18 1028.67 1028.96 1028.90 1029.12 1028.43 1028.45 1028.50 1028.22 1028.19 1028.16
1021.59 1022.06 1022.51 1022.86 1023.21 1023.39 1023.57 1024.03 1024.44 1024.77 1025.11 1025.55 1026.27 1026.95 1026.87 1025.91 1025.75 1025.97 1026.87 1027.84 1027.77 1027.94 1027.99 1028.20 1028.35 1028.42 1028.43 1028.02 1028.07 1028.31 1028.35 1028.26 1028.46 1028.56 1028.56 1028.49 1028.55 1027.93 1028.01 1027.84 1027.94 1028.08 1027.84
1021.81 1022.22 1022.59 1022.85 1023.41 1023.84 1024.41 1024.89 1025.27 1025.70 1026.15 1026.67 1027.20 1027.20 1026.76 1026.31 1026.35 1026.84 1027.77 1028.23 1028.12 1028.23 1028.24 1028.30 1028.52 1028.47 1028.00 1027.33 1027.76 1028.17 1028.48 1028.16 1028.12 1027.98 1028.10 1028.05 1027.94 1027.83 1027.73 1028.22 1028.28 1028.31 1027.81
1021.65 1022.07 1022.45 1022.90 1023.35 1023.96 1024.46 1024.99 1025.45 1025.83 1026.32 1026.81 1027.13 1027.10 1027.05 1027.18 1027.13 1027.50 1028.10 1028.36 1028.26 1028.33 1028.52 1028.56 1027.94 1027.75 1027.46 1027.15 1027.48 1027.99 1028.03 1028.27 1028.24 1028.34 1028.66 1028.69 1028.65 1028.55 1028.19 1028.64 1028.53 1028.48 1028.29
1021.30 1021.85 1022.40 1022.82 1023.24 1023.74 1024.40 1024.95 1025.54 1026.08 1026.63 1027.09 1027.39 1027.63 1027.70 1027.59 1027.60 1027.33 1027.50 1027.96 1028.00 1028.19 1028.33 1028.39 1028.37 1027.69 1027.39 1027.24 1027.44 1027.68 1027.72 1028.28 1028.65 1029.11 1029.26 1029.25 1029.09 1028.93 1028.80 1028.79 1028.62 1028.56 1028.19
1021.12 1021.76 1022.41 1022.92 1023.40 1023.98 1024.56 1025.27 1025.83 1026.40 1027.06 1027.58 1027.89 1028.09 1028.07 1028.10 1027.43 1027.19 1027.17 1027.27 1027.36 1027.83 1028.14 1028.25 1028.30 1027.62 1027.47 1027.36 1027.53 1027.27 1027.76 1028.52 1029.11 1029.21 1029.10 1028.93 1028.75 1028.60 1028.27 1028.44 1028.27 1028.01 1027.79
1021.22 1021.93 1022.50 1023.10 1023.67 1024.24 1024.86 1025.50 1026.10 1026.47 1026.95 1027.42 1027.76 1028.09 1028.27 1028.19 1028.11 1027.16 1027.33 1027.34 1027.39 1027.84 1028.00 1027.88 1027.85 1027.82 1027.88 1028.00 1027.59 1027.49 1028.21 1028.81 1028.87 1028.80 1028.69 1028.55 1028.35 1028.12 1028.04 1028.05 1027.60 1027.26 1027.04
1020.91 1021.75 1022.51 1023.17 1023.86 1024.36 1024.83 1025.28 1025.79 1026.32 1026.69 1027.10 1027.52 1027.83 1028.02 1028.07 1028.05 1028.12 1028.05 1028.08 1027.58 1027.74 1027.71 1028.04 1028.02 1028.15 1028.01 1028.15 1028.31 1028.18 1028.39 1028.51 1028.44 1028.48 1028.53 1028.39 1028.14 1028.00 1027.81 1027.76 1027.43 1027.01 1026.75
1020.39 1021.27 1022.17 1022.87 1023.52 1024.28 1024.59 1024.83 1025.15 1025.42 1025.72 1026.31 1026.80 1027.20 1027.61 1027.78 1027.73 1027.50 1027.45 1027.55 1027.63 1027.75 1028.00 1028.37 1028.54 1028.76 1028.63 1028.59 1028.48 1028.44 1028.43 1028.39 1028.21 1028.29 1028.27 1028.14 1027.98 1027.79 1027.59 1027.35 1027.17 1026.87 1026.65
1019.78 1020.66 1021.45 1022.34 1023.18 1023.86 1024.37 1024.71 1024.75 1024.98 1025.23 1025.52 1025.92 1026.47 1027.11 1027.00 1026.95 1026.89 1026.88 1027.15 1027.39 1027.62 1027.97 1028.29 1028.43 1028.56 1028.56 1028.59 1028.61 1028.52 1028.45 1028.36 1028.29 1028.15 1028.03 1027.94 1027.79 1027.62 1027.44 1027.15 1026.91 1026.63 1026.28
1018.63 1019.72 1020.75 1021.72 1022.64 1023.46 1024.12 1024.54 1024.92 1024.94 1025.01 1025.37 1025.66 1025.99 1026.46 1026.80 1026.71 1026.84 1026.87 1027.10 1027.32 1027.65 1028.06 1028.25 1028.40 1028.52 1028.59 1028.53 1028.54 1028.53 1028.39 1028.27 1028.18 1028.14 1028.03 1027.83 1027.62 1027.39 1027.17 1026.92 1026.56 1026.23 1025.88
1017.79 1018.62 1019.79 1020.96 1021.97 1022.91 1023.63 1024.21 1024.62 1024.95 1025.29 1025.60 1025.56 1025.90 1026.15 1026.41 1026.68 1026.78 1026.89 1027.16 1027.60 1027.82 1028.11 1028.25 1028.32 1028.40 1028.44 1028.43 1028.41 1028.29 1028.20 1028.05 1027.94 1027.82 1027.64 1027.47 1027.34 1027.16 1026.93 1026.61 1026.26 1025.83 1025.38
1017.37 1018.27 1019.22 1020.35 1021.31 1022.20 1023.18 1023.95 1024.40 1024.89 1025.25 1025.70 1025.91 1025.79 1026.12 1026.24 1026.58 1026.78 1027.00 1027.43 1027.74 1027.96 1028.11 1028.22 1028.29 1028.30 1028.25 1028.20 1028.15 1028.10 1027.94 1027.77 1027.56 1027.38 1027.18 1027.23 1026.99 1026.83 1026.58 1026.16 1025.71 1025.27 1025.07
1016.82 1017.65 1018.77 1019.85 1020.90 1021.94 1022.85 1023.60 1024.23 1024.76 1025.17 1025.55 1025.81 1026.04 1026.29 1026.43 1026.83 1027.11 1027.31 1027.54 1027.76 1027.93 1028.06 1028.06 1028.14 1028.20 1028.23 1028.20 1028.09 1027.91 1027.69 1027.47 1027.28 1027.20 1027.00 1026.82 1026.57 1026.40 1026.07 1025.53 1025.12 1025.05 1024.50
1015.76 1016.95 1017.91 1019.26 1020.22 1021.13 1022.05 1022.87 1023.60 1024.30 1024.78 1025.18 1025.42 1025.70 1026.08 1026.52 1026.90 1027.19 1027.43 1027.54 1027.60 1027.73 1027.85 1027.90 1027.90 1027.91 1027.93 1027.94 1027.86 1027.72 1027.55 1027.31 1027.06 1026.87 1026.66 1026.42 1026.19 1025.86 1025.47 1025.06 1024.99 1024.47 1023.96
1014.85 1016.07 1017.32 1018.24 1019.33 1020.42 1021.44 1022.32 1022.97 1023.59 1024.21 1024.68 1025.13 1025.50 1025.71 1026.20 1026.68 1027.03 1027.32 1027.45 1027.45 1027.44 1027.51 1027.59 1027.58 1027.55 1027.64 1027.59 1027.48 1027.37 1027.19 1026.93 1026.68 1026.47 1026.25 1025.99 1025.66 1025.31 1025.00 1024.75 1024.29 1023.77 1023.27
1014.57 1015.76 1016.97 1018.02 1018.81 1019.80 1020.88 1021.78 1022.37 1022.95 1023.57 1024.03 1024.56 1025.09 1025.44 1025.91 1026.39 1026.81 1027.13 1027.39 1027.44 1027.44 1027.31 1027.37 1027.36 1027.57 1027.60 1027.43 1027.15 1026.97 1026.76 1026.50 1026.23 1026.03 1025.75 1025.41 1025.31 1025.00 1024.65 1024.16 1023.71 1023.28 1022.90
1014.12 1015.03 1016.06 1017.21 1018.17 1019.17 1020.25 1021.30 1021.92 1022.46 1023.04 1023.60 1024.16 1024.62 1025.12 1025.62 1026.11 1026.51 1026.91 1027.15 1027.30 1027.35 1027.40 1027.38 1027.45 1027.51 1027.17 1026.88 1026.71 1026.53 1026.31 1026.09 1025.83 1025.55 1025.29 1025.00 1024.72 1024.36 1023.97 1023.47 1023.06 1022.61 1022.21
1013.98 1014.94 1015.99 1016.93 1017.84 1018.87 1020.10 1021.00 1021.77 1022.41 1022.84 1023.30 1023.86 1024.37 1024.89 1025.43 1025.95 1026.35 1026.67 1026.92 1026.95 1026.93 1027.04 1027.23 1027.22 1027.02 1026.87 1026.69 1026.49 1026.26 1025.98 1025.61 1025.31 1024.99 1024.73 1024.42 1024.00 1023.54 1023.08 1022.62 1022.17 1021.69 1021.29
1013.90 1014.86 1015.84 1016.87 1017.81 1018.80 1019.82 1020.86 1021.72 1022.19 1022.62 1023.07 1023.56 1024.14 1024.67 1025.17 1025.64 1026.11 1026.41 1026.59 1026.68 1026.73 1026.93 1026.93 1026.77 1026.56 1026.45 1026.30 1026.04 1025.73 1025.30 1024.99 1024.65 1024.22 1023.91 1023.57 1023.25 1022.83 1022.46 1021.95 1021.43 1020.98 1020.53
Wind_Speed
8 10 10 9 10 9 7 7 7 7 6 7 8 6 5 5 4 5 4 4 4 4 4 5 5 5 4 3 3 3 3 3 2 1 2 2 4 4 5 5 4 3 4
5 9 10 10 10 10 9 10 7 8 7 5 5 5 5 3 3 2 2 2 3 4 3 5 5 5 5 4 4 4 4 3 3 1 2 3 1 1 2 3 3 3 4
8 9 10 8 10 11 12 10 9 9 9 7 7 7 6 5 5 5 4 4 4 4 4 6 5 6 5 3 4 4 3 3 3 3 1 1 2 2 3 3 2 4 3
9 10 8 7 9 9 10 10 10 9 8 8 8 8 6 7 6 7 6 6 6 6 6 5 4 6 6 5 5 5 3 4 2 3 1 1 2 2 1 2 3 1 4
7 8 7 7 9 8 8 10 10 11 9 9 10 8 8 8 6 6 7 7 7 6 7 4 5 7 9 7 4 3 4 3 2 2 1 1 2 2 2 2 2 2 4
7 7 7 8 8 7 7 9 11 10 8 8 7 7 6 6 13 12 8 6 7 5 6 6 6 10 6 6 8 8 6 4 3 2 2 2 3 3 2 2 2 2 6
8 7 7 6 7 6 7 9 8 8 7 7 7 7 6 6 13 12 11 5 6 6 5 5 4 5 6 5 5 5 3 3 0 5 4 3 3 3 1 3 2 3 5
7 7 7 7 7 7 8 8 7 6 7 6 6 5 5 6 12 12 13 6 6 6 5 5 4 3 3 2 2 1 1 1 3 2 4 4 5 4 2 2 4 4 4
7 7 7 7 8 7 7 7 5 6 5 4 4 5 6 6 11 10 8 5 5 5 4 2 1 2 6 4 4 3 3 1 3 7 9 10 11 11 9 3 3 3 5
7 7 7 7 7 8 7 7 3 4 5 5 5 4 6 4 8 9 7 3 4 3 2 2 4 2 5 6 3 3 1 2 4 6 7 8 8 7 9 4 2 2 3
7 6 6 6 7 7 7 3 5 5 6 5 5 3 4 2 1 5 6 2 2 2 2 1 2 5 6 4 4 3 3 4 6 4 3 4 4 4 3 4 3 2 5
7 7 6 6 5 5 7 5 5 6 6 5 5 3 1 2 2 2 3 2 0 2 1 1 3 7 5 6 4 4 7 6 3 2 2 2 5 5 3 3 4 4 3
8 7 7 6 6 6 6 6 4 5 4 4 4 3 2 1 3 4 3 4 3 2 0 2 5 5 5 5 5 0 5 2 1 1 2 2 2 3 5 4 4 5 5
9 8 7 7 6 5 4 4 5 4 4 4 4 4 2 1 1 1 1 2 3 2 2 3 3 5 3 1 2 2 1 1 2 1 2 3 3 3 4 2 3 4 4
9 9 8 7 7 6 4 5 5 4 6 5 4 4 4 3 4 5 4 3 2 3 2 1 2 2 2 0 1 2 2 2 2 1 3 3 4 4 5 4 3 4 5
10 8 8 7 5 5 5 3 7 6 11 8 8 7 3 4 5 5 3 3 1 2 2 1 1 2 2 1 1 2 2 3 3 3 3 3 4 4 5 6 5 3 6
13 11 8 8 7 7 4 5 5 3 8 8 9 8 8 5 4 3 4 3 2 0 1 2 2 2 2 2 2 2 2 2 3 3 3 4 4 4 8 6 6 5 6
12 20 10 8 8 7 6 5 5 6 5 3 7 6 8 5 4 3 4 3 1 1 1 1 2 2 3 3 3 2 3 3 4 4 5 5 4 5 6 7 6 8 6
11 9 9 8 7 9 6 6 5 5 5 4 2 6 7 8 5 4 2 2 1 1 1 2 2 2 3 3 4 3 4 4 5 5 2 5 3 4 6 8 7 9 14
11 16 13 9 8 7 7 7 6 5 5 5 4 4 2 3 2 1 1 2 2 1 1 2 2 2 3 3 3 3 4 5 3 4 4 5 5 5 7 8 6 7 8
10 11 17 9 9 9 8 8 7 6 6 6 5 6 11 4 4 3 3 2 2 2 2 3 2 2 2 3 3 4 4 5 4 5 5 5 6 6 7 5 6 8 9
11 11 11 11 10 9 8 7 7 7 6 6 4 5 14 4 4 3 3 2 2 2 2 2 3 2 2 3 4 5 5 5 5 5 6 6 7 6 6 7 8 9 8
10 11 10 8 9 13 9 7 7 7 6 6 5 5 4 4 4 4 3 2 2 2 2 2 2 3 3 4 4 4 5 5 5 5 7 6 6 7 7 8 8 8 8
12 13 12 10 10 9 9 8 6 8 7 6 6 5 5 4 4 4 3 2 2 2 1 2 2 4 5 5 4 5 5 6 6 6 9 8 8 10 8 9 9 10 9
10 10 10 10 11 9 9 7 6 6 6 6 5 5 4 4 4 4 3 3 3 2 2 2 3 5 7 7 7 8 9 13 9 11 6 8 10 12 10 9 10 9 10
10 11 10 9 9 9 8 7 7 7 6 5 5 4 5 4 4 4 3 3 2 2 3 3 4 7 7 6 7 9 12 13 11 15 10 7 8 7 8 10 12 9 10
Wind_Direction
94 99 91 86 86 85 103 107 103 104 119 125 133 129 120 109 107 107 114 128 133 138 157 149 128 124 114 113 92 93 86 91 107 78 40 360 25 20 4 4 357 333 315
73 95 92 99 99 91 77 71 84 96 85 82 86 89 86 87 79 83 117 117 136 135 116 100 114 100 90 77 78 81 80 57 110 167 340 338 17 334 293 327 345 334 336
80 78 80 79 86 94 95 94 85 86 87 83 89 87 75 68 78 71 71 83 89 90 96 108 107 104 89 74 83 85 86 80 84 113 300 319 305 2 341 343 344 320 310
78 75 79 78 85 92 94 93 92 85 82 86 78 79 78 73 63 71 70 68 62 66 65 78 101 111 114 114 93 107 103 92 99 99 99 295 277 302 244 254 309 300 302
84 93 90 76 75 77 87 88 86 84 80 83 85 77 73 73 74 81 78 76 75 68 70 70 99 122 126 134 125 132 118 84 64 81 211 225 265 298 299 304 294 291 267
87 82 73 69 69 82 86 85 83 81 77 77 70 79 74 82 85 85 87 89 81 67 74 51 51 58 63 98 110 125 133 147 173 166 232 231 256 250 259 251 261 357 320
111 102 101 105 101 98 99 92 86 83 89 83 73 73 71 67 82 80 82 72 83 79 79 65 56 44 59 56 74 89 43 349 103 168 195 219 247 229 238 299 292 298 280
118 122 126 119 111 100 91 91 88 78 84 82 82 88 94 76 82 85 87 70 73 69 76 76 66 33 325 198 152 141 271 323 295 227 202 249 231 273 223 261 301 299 293
144 143 139 130 123 119 112 117 108 109 100 101 123 107 92 73 82 94 97 87 84 72 65 43 207 334 309 289 147 209 238 84 356 33 14 3 353 353 337 33 346 324 309
162 157 148 143 137 134 135 129 113 113 124 123 103 94 116 85 102 110 119 120 104 103 61 8 353 293 294 335 111 178 51 53 36 14 4 358 2 349 2 31 327 312 295
147 142 142 144 139 133 126 108 120 113 111 108 111 91 96 98 43 137 136 138 149 138 108 359 326 324 342 31 91 92 86 71 41 39 358 351 346 340 342 331 319 264 296
146 145 146 141 135 135 132 119 124 129 130 134 130 112 61 7 327 253 119 39 223 120 129 192 295 327 29 18 30 4 79 88 85 49 351 344 358 357 324 275 276 274 252
147 154 153 146 141 143 141 141 129 144 146 156 157 160 169 24 19 46 38 336 36 90 293 307 18 14 17 4 339 273 85 110 268 292 310 302 288 289 301 295 280 250 264
161 158 152 150 153 154 143 149 146 159 159 163 170 178 182 181 253 319 308 323 318 12 10 353 355 345 20 354 1 40 26 260 254 290 288 290 288 307 307 297 293 315 308
162 159 163 166 163 159 166 171 174 189 169 170 188 173 174 206 227 208 220 235 200 267 136 135 99 290 271 188 3 345 336 311 308 319 299 303 302 306 302 305 281 297 306
164 166 173 165 158 157 154 131 200 187 194 188 180 165 204 204 202 232 276 212 247 351 121 214 263 273 279 254 303 312 312 328 319 332 306 302 305 310 309 304 300 276 310
175 170 167 163 160 162 158 158 155 187 176 181 172 173 171 188 221 266 301 224 240 157 171 253 253 259 258 249 264 259 276 291 314 292 296 289 293 296 309 294 297 278 299
176 175 167 166 165 160 163 162 150 160 159 174 180 166 176 186 218 274 285 130 83 2 208 266 262 246 251 253 258 255 267 262 260 267 266 265 277 301 301 296 292 288 288
172 169 164 160 162 163 151 148 150 151 156 158 148 189 196 204 215 250 180 150 196 229 252 272 267 275 275 275 255 265 269 275 274 284 298 316 289 291 286 283 276 297 310
175 173 162 158 157 151 155 158 160 165 163 176 182 188 158 152 154 199 188 205 190 213 244 273 241 272 304 315 318 301 285 281 289 288 282 284 284 280 282 290 291 304 292
165 168 166 155 162 163 166 171 168 171 177 186 192 188 193 172 190 204 217 218 192 202 222 243 259 263 263 272 276 282 278 279 283 283 285 283 284 279 283 279 298 288 285
165 163 162 166 160 160 164 161 165 170 174 175 164 190 201 177 181 192 208 218 216 211 223 256 274 248 253 260 266 262 268 272 273 274 277 278 277 277 293 290 284 285 282
155 153 155 157 155 156 157 160 163 167 171 166 163 174 189 163 172 183 196 196 212 226 249 265 278 290 278 278 270 271 275 277 277 280 278 289 299 290 286 286 289 289 286
160 160 158 154 153 150 153 161 163 170 166 162 168 176 173 167 169 179 183 193 205 239 271 259 265 272 270 268 266 268 275 287 281 279 279 277 285 291 280 276 278 280 278
153 150 150 150 151 147 149 151 153 165 166 171 172 170 167 162 167 178 182 195 206 193 269 280 254 276 283 284 279 279 283 294 293 286 289 276 270 277 277 276 279 279 274
145 143 142 142 138 142 145 145 167 170 174 171 166 163 164 165 171 173 186 201 195 215 265 260 266 264 270 277 281 291 310 309 298 295 291 277 286 288 296 292 287 288 286